Voltar ao catálogo

DELTA 1 DEB

AtivoSSO
NORAD 21542·DEBRIS·🇺🇸 United States

Lançado Jun 12, 1975 de Vandenberg Space Force Base

Loading…

Próximas Passagens (próximas 24 horas)

TLE

AtualizadoSource: Space-Track

Época: Sep 14, 2026, 04:03 UTC

1 21542U 75052GW  26257.16888389  .00000126  00000-0  32000-3 0  9993
2 21542 100.2657 139.4465 0049100 165.0470 348.9930 13.38583071724970

Acompanhe DELTA 1 DEB em tempo real com AllMySat

Download on the App Store